Location: Park Creek Village Mobile Home Park
(38.2885°N, 122.4714°W)
Time: 17:20:49
(UTC+00:00)

Meteor 1-5 Rocket - Pass Details

Date: 14 December 2019
Orbit: 788 x 916 km, 81.2° (Epoch: 25 January)

Event Time Altitude Azimuth Distance (km) Brightness Sun altitude
Rises 13:47:05 0° 186° (S) 3,534 7.6 -17.4°
Reaches altitude 10° 13:49:34 10° 187° (S) 2,591 6.8 -16.9°
Maximum altitude 13:55:30 89° 101° (E) 907 4.3 -15.8°
Drops below altitude 10° 14:01:21 10° 9° (N) 2,551 6.6 -14.7°
Sets 14:03:47 0° 10° (N) 3,476 7.3 -14.3°
